Wind_Speed
11 10 10 11 12 12 12 12 12 12 11 10 9 8 8 8 7 7 7 8 8 8 8 8 8 8 8 8 8 9 9 9 9 9 9 10 9 9 9 9 9 9 10 10 11 11 12 12 13 13 14 15 15 15 16 16 16 17 17 17 17 17 17 17 17 17 17 17 17 17 17 17 17 17 17 17 17 17 17 17 17 18 18 18 18 18
9 10 11 12 12 12 12 13 13 13 12 11 10 9 9 8 8 8 8 8 8 8 8 9 9 9 8 8 9 9 10 10 10 10 10 10 10 10 10 10 10 10 10 10 11 11 12 13 13 14 14 15 15 16 16 16 17 17 17 17 17 18 18 18 18 18 18 18 18 18 18 18 18 18 18 18 18 18 18 18 18 18 19 20 20 19
10 11 13 13 12 12 13 14 14 14 12 11 10 9 9 9 9 9 9 9 9 9 9 9 9 9 9 9 9 10 10 10 11 11 11 10 11 10 10 10 10 10 10 11 11 11 12 13 14 14 15 15 16 16 17 17 17 18 18 18 18 18 18 18 18 18 18 18 18 18 18 18 18 18 18 19 19 19 18 18 18 19 19 20 20 21
11 13 14 13 13 13 14 15 15 14 13 12 11 10 9 9 9 9 9 9 10 10 10 9 9 9 9 9 10 10 10 11 11 11 11 11 11 11 11 11 11 11 11 11 11 12 12 13 14 15 15 16 16 17 17 18 18 18 18 19 19 19 19 19 19 19 19 19 19 19 18 18 18 18 19 19 19 19 19 19 19 19 19 19 19 20
11 12 13 13 14 15 15 15 14 14 13 12 11 10 9 9 9 10 10 10 10 10 10 10 9 9 9 10 10 10 11 11 11 11 11 11 11 11 11 11 11 12 12 12 12 12 12 13 14 15 16 16 17 17 18 18 19 19 19 20 20 20 20 20 20 20 20 20 19 19 19 19 19 19 19 19 19 19 19 19 19 19 19 19 19 19
12 12 13 14 14 15 15 15 15 15 14 13 12 11 10 9 10 10 10 10 10 10 10 10 9 10 10 10 10 11 11 11 11 11 11 11 11 11 11 11 12 12 12 13 13 13 13 13 14 15 16 16 17 18 18 19 19 19 20 20 21 21 21 21 21 21 21 21 20 20 20 20 19 19 19 19 19 19 19 19 19 19 19 19 19 19
15 14 15 15 16 16 15 15 15 15 15 14 13 11 10 10 10 10 10 10 10 10 10 10 10 10 10 10 10 11 11 11 11 11 11 11 11 11 11 12 12 12 13 13 13 13 13 13 14 15 15 16 17 18 18 19 19 20 20 20 21 21 21 22 22 22 22 22 22 21 21 21 20 20 20 19 19 19 19 19 19 19 19 19 19 19
17 16 16 15 15 15 15 15 15 15 15 14 13 11 10 10 9 10 10 11 11 10 10 10 10 10 10 10 10 11 11 11 11 11 11 11 11 11 11 12 12 12 13 13 14 14 14 14 14 15 16 16 17 17 18 19 19 20 20 21 21 21 22 22 22 22 22 22 22 22 22 22 21 21 21 20 20 19 19 19 19 19 19 19 19 19
19 18 17 16 15 14 14 15 15 15 15 14 12 11 10 10 9 9 10 10 10 10 10 9 9 9 10 10 10 10 11 11 11 11 10 10 11 11 11 12 12 13 13 14 14 14 15 15 15 15 16 16 17 17 18 19 19 20 20 21 21 21 21 22 22 22 22 22 23 23 23 23 22 22 22 21 21 20 20 20 20 20 19 19 19 19
21 20 18 17 17 16 15 14 15 16 14 13 11 11 11 10 10 9 9 9 9 10 9 9 9 9 10 10 10 10 10 11 11 11 11 11 11 11 11 12 12 12 13 13 14 15 15 15 15 16 16 16 17 17 18 18 19 19 20 20 21 21 21 22 22 22 22 22 22 23 23 23 23 23 23 22 22 21 21 21 20 20 20 20 20 20
20 19 18 17 17 17 17 16 15 14 13 11 11 11 12 11 10 9 8 8 8 9 9 9 9 9 9 10 10 10 10 11 11 11 11 11 11 11 11 12 12 13 13 14 14 15 15 16 16 16 16 16 16 17 17 18 18 19 20 20 21 21 21 22 22 22 22 22 22 22 22 23 23 23 23 23 23 22 22 22 21 21 20 20 20 20
18 18 17 16 16 16 15 14 13 12 11 10 10 10 10 10 9 8 7 8 8 9 9 9 9 9 9 10 10 10 10 10 11 11 11 11 11 12 12 12 12 13 13 14 14 15 15 16 16 16 16 16 16 16 16 17 18 18 19 19 20 20 21 21 21 22 22 22 22 22 22 22 22 23 23 23 23 23 23 22 22 22 21 21 20 20
16 15 15 15 14 13 12 10 9 9 8 8 8 8 8 8 7 7 8 8 9 10 10 10 10 10 10 10 10 10 10 10 10 11 11 11 12 12 12 12 12 13 14 14 15 15 15 16 16 16 16 16 16 16 16 16 17 17 18 19 19 20 20 21 21 21 21 21 21 22 22 22 22 22 22 22 23 23 23 23 23 22 22 22 21 21
12 12 12 11 10 10 9 8 7 6 6 7 7 7 7 7 8 8 9 9 10 11 11 11 11 11 11 11 11 11 11 11 11 11 11 11 12 12 13 13 13 13 14 14 15 15 15 15 15 15 16 16 16 16 16 16 16 17 17 18 19 19 19 20 20 21 21 21 21 21 21 21 21 22 22 22 22 22 22 23 23 23 23 22 22 22
10 10 10 9 8 8 7 6 6 6 6 7 7 7 7 8 9 9 10 10 11 11 11 12 11 11 11 11 11 11 12 12 11 11 10 11 11 13 13 13 13 13 14 14 14 15 15 15 15 15 16 16 16 16 16 16 16 17 17 17 18 18 19 19 19 20 20 20 21 21 21 21 21 21 21 21 21 22 22 22 22 23 23 23 22 22
10 10 10 9 8 8 7 6 6 7 7 7 7 8 8 10 10 11 11 12 12 12 12 12 12 12 12 11 12 12 13 13 13 12 11 11 12 13 13 13 13 13 13 14 14 14 15 15 15 16 16 17 17 17 17 17 17 17 17 17 18 18 18 18 19 19 19 20 20 20 21 21 21 21 21 21 21 21 21 22 22 22 22 22 23 22
9 10 9 8 8 8 7 7 7 8 8 8 8 9 10 11 12 12 13 13 13 13 14 14 13 13 12 12 13 14 14 14 14 13 12 12 12 13 13 13 13 13 13 14 14 15 15 15 16 16 17 17 17 17 17 17 17 17 17 17 17 18 18 18 18 19 19 19 20 20 20 20 21 21 21 21 21 21 21 21 22 22 22 22 23 23
8 8 8 7 8 7 7 7 8 9 9 9 9 10 11 12 13 13 13 13 13 14 14 14 15 14 14 13 14 15 16 15 15 14 13 13 13 14 14 14 14 13 13 14 15 15 15 16 16 17 17 17 18 18 17 17 17 17 17 17 17 17 17 18 18 18 18 19 19 19 20 20 20 21 21 21 21 21 21 21 21 22 22 22 22 23
7 6 6 7 7 8 8 8 9 9 9 10 10 10 11 12 12 13 13 13 13 14 14 15 15 15 15 14 15 16 16 16 16 15 14 14 14 15 15 15 15 14 14 15 15 16 16 16 16 16 17 17 18 18 17 17 17 17 17 17 17 17 17 17 17 17 18 18 18 19 19 20 20 21 21 21 21 21 21 21 21 21 22 22 22 22
6 6 6 7 7 8 8 9 9 9 9 10 10 11 11 11 12 12 13 13 14 14 15 15 15 15 15 15 15 16 17 17 17 16 16 15 16 16 16 16 16 16 15 15 16 16 16 16 16 16 16 17 17 17 17 17 17 17 17 17 17 17 17 17 17 17 17 17 18 18 19 19 20 20 21 21 21 22 22 22 22 22 22 22 22 22
6 6 7 7 8 9 9 9 8 9 10 11 11 12 12 12 12 13 13 13 13 14 14 14 14 14 15 15 16 17 17 17 17 17 17 16 17 17 17 18 18 17 16 16 16 16 16 16 16 16 17 17 18 18 18 17 17 17 18 18 17 17 17 16 16 16 17 17 18 18 19 19 20 20 21 21 22 22 22 22 22 22 22 22 22 22
4 5 6 7 8 8 8 8 9 9 10 11 11 11 11 12 13 13 13 13 13 13 13 13 13 14 15 16 16 17 17 17 17 17 17 17 17 17 18 19 19 19 18 17 17 17 17 17 16 17 17 18 18 19 18 18 18 18 18 18 18 17 16 16 16 16 17 17 18 18 19 19 20 20 21 21 22 22 22 22 23 23 23 22 22 22
3 4 5 6 6 7 8 8 9 9 9 9 10 10 10 11 12 13 13 13 14 14 14 14 14 14 15 16 16 17 17 16 17 17 17 17 17 17 18 19 20 20 20 19 18 18 18 17 17 17 18 19 19 19 19 19 19 19 19 18 18 17 17 17 17 17 18 18 18 19 19 19 20 20 21 21 22 22 22 23 23 23 23 23 23 23
4 5 5 6 6 7 7 8 8 8 8 8 9 9 10 11 11 12 13 13 14 14 14 14 14 14 14 15 16 17 17 16 17 17 18 18 18 18 19 20 20 21 21 20 19 19 19 18 17 17 18 19 19 19 19 19 19 19 18 18 18 17 18 18 18 18 19 19 19 19 20 20 20 21 21 21 22 22 22 23 23 23 23 23 23 23
6 6 6 7 7 7 7 8 8 8 8 8 8 9 10 11 12 13 13 14 14 14 15 15 15 14 14 15 16 17 17 17 17 18 18 18 19 19 20 20 21 22 22 21 20 20 20 19 18 18 18 19 19 19 19 19 19 18 18 17 18 18 19 19 20 20 20 20 21 21 21 21 21 21 22 22 22 22 22 23 23 23 24 24 24 24
7 7 7 7 8 8 8 9 10 10 10 9 9 10 11 12 12 13 14 14 15 15 16 16 16 16 16 16 17 18 18 18 18 18 18 19 19 20 21 21 22 24 24 23 22 21 21 21 20 19 19 20 20 20 20 19 19 18 18 18 19 20 21 21 22 22 22 22 22 22 22 22 22 22 22 22 22 23 23 23 23 24 24 24 24 24
7 7 7 8 8 8 8 9 11 11 11 11 11 11 11 12 13 14 14 14 15 16 17 17 17 17 17 18 18 18 18 19 19 19 19 19 20 21 21 22 23 25 27 26 24 23 23 23 22 21 21 22 22 22 21 21 20 20 20 21 22 23 23 24 24 24 24 24 24 24 24 23 23 23 23 23 23 23 23 23 24 24 24 25 25 25
7 7 7 8 8 8 9 10 11 12 12 12 12 12 12 13 13 14 14 14 15 16 17 17 17 18 19 19 19 19 19 20 20 20 20 20 21 21 22 23 25 27 28 28 27 26 26 25 24 24 24 24 24 24 23 23 22 22 23 23 24 25 25 26 25 25 25 25 25 25 25 25 25 24 24 24 24 24 24 24 24 24 25 25 25 25
8 8 8 8 8 8 9 10 11 11 12 12 12 12 12 13 14 14 14 15 16 17 17 17 17 18 19 19 19 19 19 19 19 19 20 21 21 22 22 23 25 27 28 28 29 29 28 27 25 25 24 25 25 25 25 25 24 25 25 25 26 26 26 26 26 26 26 26 26 26 26 26 26 25 25 25 25 25 24 24 25 25 25 25 25 26
9 9 9 9 9 9 9 10 10 11 12 12 13 13 13 13 14 14 14 15 15 16 16 16 16 17 18 18 18 18 18 18 18 19 20 21 23 23 23 23 24 26 26 27 29 30 30 28 26 25 24 25 25 25 25 25 25 25 25 26 26 26 26 26 26 26 26 26 26 27 27 27 27 26 26 26 26 25 25 25 25 25 26 26 26 26
9 9 10 10 10 10 11 11 11 11 12 12 13 13 13 13 14 14 14 14 14 15 15 15 16 16 17 17 18 17 17 18 19 20 21 22 23 23 23 23 24 24 24 25 27 29 31 30 28 26 25 25 25 25 25 24 24 25 25 25 25 25 25 25 25 26 26 26 26 26 26 27 27 27 27 27 27 26 26 26 26 26 26 27 27 27
10 10 10 11 11 12 12 11 11 11 11 11 12 12 13 13 13 13 13 13 14 14 14 15 15 15 16 16 17 17 17 18 18 20 21 22 23 23 23 23 23 24 23 23 24 26 27 30 31 30 28 27 26 25 25 24 24 24 25 25 25 25 25 25 25 25 25 25 25 25 26 26 26 27 27 27 27 27 26 26 26 26 27 27 28 28
10 10 10 11 11 12 12 12 11 10 10 10 11 12 12 12 12 12 12 12 13 13 14 14 14 15 15 16 17 17 17 16 17 18 20 22 23 23 23 23 23 24 23 22 23 24 25 29 31 31 31 30 28 27 26 25 25 25 25 25 25 25 25 24 24 24 25 25 25 25 25 25 26 26 26 27 27 27 26 26 26 26 27 28 28 29
11 11 10 10 11 12 12 12 11 10 10 10 11 11 11 12 12 12 11 12 12 12 13 14 14 15 15 16 17 17 16 15 15 17 19 21 23 23 23 23 23 24 23 23 24 25 26 28 30 31 32 31 30 29 28 27 26 26 25 25 26 25 25 24 24 24 25 24 24 24 25 25 25 25 26 26 26 26 26 26 26 26 26 27 28 29
12 11 11 10 11 12 13 12 12 11 10 10 11 11 11 11 11 11 11 11 11 12 12 13 14 15 16 17 18 18 17 15 15 16 18 20 22 22 23 23 23 23 23 24 25 25 26 28 29 30 31 32 32 30 29 28 27 26 26 25 25 25 25 24 24 24 25 25 24 24 24 24 24 25 25 25 25 25 25 25 25 25 25 26 27 28
14 13 12 12 12 13 14 14 13 12 11 11 11 11 12 12 12 12 12 12 12 12 12 13 13 14 15 17 18 18 18 16 15 16 18 19 21 22 23 23 23 22 23 24 24 25 26 28 29 29 30 32 32 32 30 29 28 27 27 26 25 24 24 24 24 24 24 25 25 25 24 24 24 24 24 24 24 25 25 25 25 25 25 25 26 27
15 15 14 14 14 15 15 15 15 14 13 12 12 12 12 13 13 13 13 13 13 13 14 14 14 15 16 17 17 18 17 16 16 16 17 19 20 21 22 23 22 22 22 23 23 24 25 27 29 30 30 31 32 32 32 30 29 28 28 27 26 25 25 24 24 23 24 25 25 25 24 24 24 24 24 24 25 25 25 25 25 25 25 25 26 26
16 16 15 15 16 16 17 17 16 16 15 14 14 14 14 14 14 14 14 15 15 15 15 15 15 16 17 17 18 18 17 17 17 17 18 19 19 20 21 22 22 21 21 21 22 23 24 26 28 29 30 31 31 31 31 31 30 30 29 28 27 26 26 25 24 24 24 25 25 25 24 24 24 25 25 25 25 25 25 25 25 25 25 25 25 26
18 17 16 16 17 17 17 17 17 17 17 16 16 15 15 15 15 15 16 16 17 17 17 17 17 17 18 18 18 18 18 17 17 18 18 18 19 19 20 21 21 20 20 21 22 22 23 25 26 28 29 30 31 31 30 30 30 30 30 29 28 27 26 25 25 24 24 24 24 25 25 24 24 24 25 25 25 25 25 25 25 25 25 25 25 26
20 19 18 17 17 17 18 18 18 18 18 18 17 17 16 16 16 16 17 17 18 18 19 18 19 19 18 18 18 18 17 17 17 17 18 18 18 18 19 19 19 19 19 20 21 22 23 24 26 27 28 29 30 30 30 30 30 30 30 30 30 29 27 26 25 25 24 24 24 24 24 25 25 25 25 25 25 25 25 26 26 25 25 25 25 26
21 20 19 18 18 18 18 18 18 18 18 18 18 18 18 18 17 17 17 18 18 18 18 18 19 19 19 18 18 17 17 17 17 17 17 17 17 18 18 18 18 18 19 20 21 22 23 24 25 26 27 27 28 29 30 30 29 29 29 30 30 30 28 27 25 24 23 23 23 23 23 24 25 25 25 25 25 25 25 25 25 25 25 25 25 25
21 20 20 19 19 18 18 18 18 18 18 18 18 19 20 20 20 20 19 19 19 18 18 18 18 18 18 18 17 16 16 16 16 16 16 16 16 16 17 17 17 17 18 20 22 23 23 24 25 26 27 27 27 29 30 30 29 28 28 29 30 30 29 28 25 23 23 22 22 21 21 23 23 24 24 25 25 25 24 24 24 24 23 23 23 24
21 21 21 19 18 17 17 17 17 17 16 15 16 18 20 21 22 22 22 22 21 20 18 18 18 18 19 19 18 17 16 16 16 15 15 15 15 15 15 16 16 17 19 21 22 24 24 25 26 26 26 26 27 28 29 30 29 29 28 28 28 28 29 28 26 24 23 21 20 19 19 20 22 23 24 24 24 24 23 23 23 22 22 22 22 22
23 23 21 18 16 16 16 17 17 17 16 16 18 19 21 21 22 23 24 24 23 21 20 19 18 19 20 20 19 18 17 17 16 16 15 14 14 14 14 15 16 17 19 21 23 24 25 26 26 26 26 26 27 28 29 29 29 29 28 27 26 26 26 26 25 24 23 21 19 17 17 18 20 22 23 23 23 23 23 22 22 22 22 21 22 22
25 23 19 17 16 15 16 16 16 16 17 18 19 20 21 21 22 23 24 24 23 22 21 19 19 20 21 20 20 20 19 19 18 17 16 16 15 15 15 15 17 18 19 21 22 23 25 26 26 26 26 26 27 28 28 29 29 28 28 26 25 24 24 24 23 22 21 20 18 16 16 17 18 21 22 23 23 23 23 23 23 23 23 23 23 24
23 20 18 16 15 15 15 16 16 16 16 17 18 18 19 19 20 21 21 22 22 22 21 20 20 21 21 21 21 21 21 20 19 18 17 17 17 17 17 18 19 19 20 21 22 23 24 25 26 26 26 27 27 28 28 28 28 28 26 25 24 23 23 23 21 20 19 18 17 16 15 16 18 20 21 23 23 24 24 24 25 25 26 26 26 26
20 18 17 16 15 14 15 15 15 15 16 16 16 16 17 17 18 19 20 20 21 21 21 20 20 21 21 21 21 22 22 21 20 19 18 18 18 19 19 19 20 20 21 21 22 23 24 24 25 25 26 27 28 28 28 27 26 25 24 23 23 23 23 22 21 19 18 17 16 16 16 17 18 20 22 24 25 26 27 27 27 28 28 29 30 30
18 18 17 16 15 14 14 14 14 15 15 15 16 16 17 17 18 19 20 20 20 21 21 21 21 21 21 22 22 22 22 21 21 20 19 19 19 19 20 20 20 20 21 21 22 22 23 23 24 24 24 25 26 27 26 25 24 23 23 22 22 22 23 23 21 19 18 17 17 17 18 19 21 23 25 27 29 30 31 31 31 31 31 32 33 33
19 18 17 15 14 13 13 13 14 14 15 16 17 17 18 18 19 20 21 21 21 21 21 20 20 21 21 22 23 23 22 22 21 21 21 20 20 20 21 21 21 21 21 21 21 22 22 22 23 23 22 22 23 23 24 23 22 22 22 22 22 23 23 23 22 20 19 19 19 20 21 22 23 24 26 29 31 33 34 35 35 35 35 34 35 35
20 18 16 14 13 13 13 13 14 14 15 16 17 18 19 20 20 21 21 21 21 21 20 20 20 21 23 24 23 23 22 22 22 22 21 21 21 21 22 22 22 22 22 22 22 22 23 23 23 22 22 21 20 20 21 21 22 22 22 23 23 23 24 24 23 22 21 22 22 23 24 25 25 26 28 30 33 35 37 37 38 37 37 36 36 36
20 17 15 13 13 13 13 14 14 15 16 17 18 19 20 20 20 20 21 21 21 21 20 21 21 22 23 24 24 23 23 22 22 22 22 21 21 21 21 21 21 21 22 23 24 24 25 25 25 24 22 20 19 19 19 20 21 22 23 24 24 23 24 24 24 23 23 23 24 25 26 26 27 28 29 31 33 35 37 38 39 39 38 37 37 37
Wind_Direction
234 232 235 242 251 260 269 271 273 276 278 279 281 283 283 281 277 273 270 269 268 266 264 263 264 266 270 274 279 283 287 291 294 298 301 304 307 310 313 317 320 323 326 329 330 331 331 332 331 331 331 332 333 333 333 334 334 334 335 335 335 336 336 337 337 337 337 337 337 337 337 337 337 338 338 338 338 338 338 338 338 336 335 337 339 341
235 237 240 249 258 267 272 270 270 272 274 275 278 281 283 282 280 277 274 272 271 269 268 267 268 269 273 279 283 287 290 293 296 298 301 304 306 308 310 313 316 319 322 324 327 328 328 328 328 328 329 329 330 330 331 331 331 331 332 332 332 332 333 333 333 333 334 334 333 333 333 333 333 333 333 333 334 334 334 335 335 335 334 335 337 339
238 240 245 252 258 262 264 266 268 270 272 274 276 279 283 283 281 280 279 279 277 274 272 272 272 274 278 283 287 290 293 295 297 299 301 303 305 307 309 310 313 315 318 321 323 325 326 326 326 326 327 327 328 328 329 329 329 329 329 330 330 330 330 330 330 331 331 331 331 330 330 329 329 329 329 329 329 329 330 330 331 331 331 332 333 334
231 236 244 249 252 254 257 262 268 271 273 273 275 278 281 282 280 278 277 277 278 277 276 276 277 279 282 286 289 292 294 296 298 300 302 303 305 306 308 310 311 313 315 318 320 323 324 324 324 324 325 326 326 327 327 328 328 328 328 328 328 328 329 329 329 329 329 329 328 328 327 327 327 326 326 325 325 325 326 326 326 327 327 328 329 330
220 228 236 242 247 251 257 263 268 272 274 275 276 277 279 279 277 275 274 274 276 278 279 281 282 283 285 288 289 291 293 295 298 300 301 303 305 306 308 309 311 312 313 315 318 320 322 323 323 323 324 324 325 325 326 326 327 327 327 327 327 328 328 328 328 328 327 327 327 327 326 326 325 324 323 323 322 322 322 322 323 323 323 324 325 326
214 222 231 238 245 252 260 266 271 274 276 277 277 277 277 276 275 274 273 273 274 275 278 280 282 283 284 286 287 288 290 293 295 298 300 302 304 305 307 308 310 311 312 313 315 318 320 322 322 322 323 323 323 324 324 325 325 326 326 327 327 327 327 327 327 327 327 327 326 326 325 325 324 323 322 321 321 320 320 320 320 320 320 320 321 322
221 227 233 241 249 256 264 270 274 276 278 279 279 277 274 272 272 271 270 269 269 271 273 275 277 279 281 282 284 286 288 290 292 295 298 300 303 304 306 307 308 310 311 312 313 315 317 319 321 321 321 322 322 323 323 324 324 325 325 326 326 326 326 327 327 327 327 326 326 325 325 324 324 323 322 321 320 319 318 318 318 317 317 318 319 319
232 237 242 248 255 261 266 270 273 275 277 279 278 275 272 269 267 266 266 266 266 266 268 271 273 276 278 281 283 285 287 289 291 293 296 298 301 303 304 305 306 308 309 309 311 312 314 316 318 320 320 321 321 322 322 323 323 323 324 324 325 325 326 326 326 326 326 326 326 326 325 324 324 323 322 322 320 319 318 318 317 316 316 316 317 317
240 244 248 253 256 259 261 264 268 271 275 276 275 273 271 270 266 262 261 261 262 263 264 266 269 273 275 278 282 286 288 289 291 293 295 297 299 300 301 302 303 305 306 307 309 310 312 314 316 318 319 320 320 320 321 321 321 322 322 323 323 324 325 325 326 326 326 326 326 326 325 325 324 324 323 322 321 320 319 318 317 317 316 316 316 316
245 246 248 250 253 254 254 257 262 267 271 273 271 268 267 269 268 265 262 260 259 260 260 261 265 271 275 278 282 286 288 289 291 292 294 295 296 297 297 298 300 301 303 304 306 308 310 312 314 316 318 318 319 319 319 319 319 320 320 321 322 322 323 324 324 325 325 325 326 326 326 326 325 324 324 323 322 321 320 319 319 318 317 316 316 316
246 246 244 244 247 251 252 255 259 264 267 267 266 264 263 265 267 266 262 259 257 257 259 261 263 268 275 280 282 284 287 289 291 292 292 292 293 293 294 295 296 298 300 302 304 306 308 310 312 314 315 316 316 316 316 316 317 317 318 319 320 321 321 322 323 323 324 324 325 325 326 326 326 325 325 324 323 322 321 320 319 318 318 317 317 316
243 244 242 241 242 246 250 254 257 259 260 261 263 266 267 268 268 265 258 253 253 256 260 263 265 267 272 278 281 282 284 286 288 290 291 292 292 292 293 294 296 298 300 301 303 305 306 308 310 311 312 313 313 313 313 314 314 315 316 317 318 319 319 320 321 322 322 323 324 324 325 325 325 325 325 324 323 322 321 320 320 319 318 317 317 316
239 240 240 241 242 242 241 240 240 245 252 258 259 261 264 271 275 273 265 257 255 256 260 265 268 270 271 274 278 281 282 282 283 285 288 290 292 292 293 294 296 298 300 301 302 303 304 306 307 308 309 309 309 309 309 310 311 312 313 314 315 316 317 318 319 320 321 321 322 323 323 324 324 324 324 324 323 322 322 321 320 319 318 317 317 316
232 237 238 238 238 237 234 233 236 242 249 252 253 255 259 271 278 278 272 267 263 262 262 267 273 276 277 277 278 279 279 279 280 281 284 287 290 291 292 294 296 297 299 299 300 301 302 303 304 305 305 305 305 305 306 307 308 309 310 311 313 314 315 317 317 318 319 319 320 321 321 322 323 323 323 323 323 322 321 321 320 319 318 317 316 316
223 230 230 227 228 232 235 240 247 251 251 249 250 254 260 267 269 268 265 264 266 267 269 274 278 281 282 282 281 281 279 279 279 281 283 286 288 290 292 294 296 296 297 297 297 298 299 300 301 302 302 302 302 302 303 304 305 306 308 309 310 312 313 315 316 316 317 318 318 319 320 320 321 321 321 321 322 321 321 320 320 319 318 317 316 315
227 231 228 224 224 230 234 239 246 249 250 250 251 253 257 257 259 261 260 262 267 272 275 278 281 284 285 284 284 284 283 282 281 282 285 288 288 288 291 293 294 295 295 295 295 296 297 298 298 299 300 300 300 301 302 303 304 305 306 307 309 310 311 313 314 315 316 316 317 317 318 318 319 319 320 320 320 320 320 320 320 320 319 318 317 315
234 234 232 228 229 232 234 241 246 249 251 252 255 256 258 258 260 262 263 266 272 278 281 284 286 288 290 291 289 287 285 285 285 286 287 290 290 290 290 292 293 294 294 293 293 294 296 296 297 298 299 299 300 301 302 303 304 305 306 307 308 309 310 311 312 313 314 315 315 316 316 317 317 318 318 318 319 319 319 320 320 320 319 318 317 316
237 237 237 235 235 236 238 246 251 253 254 254 257 261 266 267 269 269 270 273 278 283 287 290 292 293 295 296 294 291 290 288 289 290 290 291 292 292 291 291 292 292 292 291 292 293 295 295 297 298 299 299 300 301 302 303 304 305 306 307 307 308 309 310 311 312 312 313 314 314 315 315 316 316 316 317 317 318 318 318 319 319 319 319 318 317
238 237 235 234 235 237 241 247 250 252 253 254 256 260 263 267 271 274 276 280 284 287 291 294 295 295 295 294 292 291 292 291 292 293 292 291 292 292 291 291 291 291 290 290 291 293 295 296 298 298 299 299 299 300 301 302 304 305 306 306 306 307 307 308 309 310 311 312 312 313 313 314 314 314 315 315 315 316 316 317 317 318 318 318 318 317
242 234 227 228 231 237 243 246 246 245 247 249 254 258 262 266 270 274 277 282 286 288 291 293 294 294 294 291 290 290 292 293 293 294 293 292 292 291 290 290 289 289 289 290 292 294 296 296 297 297 297 296 296 297 299 300 302 303 304 304 304 305 305 306 307 308 309 310 310 311 311 312 312 313 313 313 314 314 314 315 315 315 316 316 316 316
245 234 235 242 240 237 240 246 246 245 248 252 257 261 265 269 271 274 276 280 284 287 290 291 292 292 292 290 289 290 292 294 294 295 295 294 292 291 290 289 289 288 289 289 291 293 294 294 294 294 294 293 293 294 296 297 299 300 301 301 301 302 302 303 303 304 305 306 307 308 309 310 311 311 312 312 312 313 313 313 313 313 314 314 315 315
253 246 253 260 256 249 249 253 255 257 261 262 264 268 271 273 274 275 277 279 282 284 287 289 290 290 290 288 289 290 292 293 295 297 298 296 294 292 290 290 289 289 290 289 289 289 289 290 291 291 291 290 291 292 293 294 296 296 297 298 298 299 299 299 299 300 301 302 304 305 307 308 309 310 310 311 311 311 311 311 311 311 312 312 312 313
259 256 258 260 261 261 261 261 263 267 270 271 273 277 279 279 279 280 282 283 285 286 287 288 288 288 289 288 289 291 293 294 295 297 298 296 293 292 292 291 290 290 290 289 288 287 286 287 289 290 290 289 290 291 292 293 294 295 296 296 296 296 295 295 295 296 298 300 301 303 305 306 307 308 308 309 309 309 309 310 310 310 310 310 310 310
258 258 256 258 261 264 267 269 270 272 274 277 281 283 285 284 285 287 289 290 290 291 291 289 288 289 290 291 292 293 294 296 297 298 297 295 294 293 293 292 291 290 289 288 288 287 287 287 289 290 290 290 291 293 294 295 295 296 297 296 295 293 293 293 294 296 298 299 301 302 303 304 304 305 305 306 306 307 307 307 308 308 308 308 308 308
263 262 262 263 266 269 273 275 277 278 278 280 283 285 286 288 290 291 292 293 294 295 295 293 292 292 293 294 294 293 294 296 296 296 297 297 297 296 294 293 292 291 289 288 288 288 289 289 290 290 291 292 294 295 296 297 298 299 298 296 294 292 292 293 294 297 299 300 301 301 302 302 302 302 302 303 303 304 304 305 305 305 305 305 306 306
265 266 266 268 270 273 277 279 282 283 284 284 285 287 288 290 292 293 293 294 295 295 294 293 292 292 292 291 290 291 293 294 294 295 297 298 297 296 295 295 294 293 291 291 291 291 291 291 291 292 293 293 295 296 297 297 298 298 297 295 293 293 293 294 296 298 300 301 301 301 301 301 301 300 300 300 301 301 301 302 302 303 303 303 303 303
271 270 269 270 271 274 277 280 282 284 285 286 286 286 288 290 291 291 292 293 294 293 291 291 292 292 291 288 288 290 293 293 293 294 296 297 296 294 294 296 295 294 294 294 294 294 293 293 294 294 293 293 294 294 295 295 296 295 295 294 294 294 295 296 298 299 300 301 301 301 300 300 300 299 299 299 299 299 299 300 300 300 300 300 300 301
275 273 271 271 271 273 275 278 281 284 286 288 289 289 290 291 291 291 292 293 293 291 291 293 295 294 292 291 291 293 294 294 294 295 296 296 294 293 295 297 296 295 295 296 295 294 293 293 293 294 293 292 292 292 293 293 293 294 294 294 295 295 296 297 298 299 299 299 299 299 299 299 299 298 298 298 298 297 297 298 298 298 298 298 298 298
280 279 276 275 274 275 276 279 282 285 289 291 293 294 294 294 294 294 295 295 294 293 294 296 297 296 294 294 295 295 295 295 295 296 297 295 293 293 296 297 296 295 297 298 297 294 293 292 293 294 294 293 292 293 293 294 295 296 296 296 296 296 296 297 297 297 297 297 297 298 298 298 298 298 297 297 297 297 297 297 297 297 296 296 296 296
280 281 282 282 281 280 280 281 284 287 291 294 296 297 297 297 296 296 297 297 296 295 297 299 298 297 297 298 299 299 298 297 298 299 298 297 295 296 298 297 297 298 302 303 302 299 296 294 294 295 295 295 295 295 296 297 298 298 297 296 295 295 295 295 295 295 295 296 296 297 297 297 297 297 297 297 297 297 297 297 296 296 295 295 294 294
271 275 278 282 284 284 284 284 285 288 292 294 296 297 297 297 298 298 298 298 297 297 298 299 299 299 300 301 303 303 301 301 303 303 300 299 299 299 301 300 300 302 305 307 307 305 303 300 297 295 295 295 294 295 295 296 296 296 295 294 293 293 293 294 294 294 295 295 296 296 297 297 297 297 297 297 297 297 297 297 297 296 295 294 293 292
264 268 272 278 282 283 284 284 286 289 291 293 295 295 296 297 298 299 299 299 299 299 299 299 300 300 300 301 302 302 302 305 306 305 303 301 301 302 303 303 303 304 307 307 306 305 305 303 300 297 295 294 294 293 293 293 294 294 294 293 293 293 294 295 295 295 295 295 296 296 296 297 297 297 297 297 297 297 297 297 297 296 295 294 293 292
261 264 269 275 279 281 283 284 286 290 293 294 294 293 295 296 298 298 299 299 299 299 300 300 300 300 300 299 298 299 301 306 307 306 303 302 302 303 305 304 304 305 307 306 303 301 301 302 301 299 297 296 296 296 295 295 295 296 296 296 296 296 297 297 297 297 297 297 297 296 296 297 297 297 296 296 296 297 297 297 296 296 295 294 292 291
260 262 267 272 277 280 282 284 288 293 297 296 293 292 293 293 294 295 296 297 298 298 298 299 299 300 300 299 298 299 301 305 306 304 302 301 301 303 305 304 304 305 307 306 303 301 300 300 300 301 300 298 298 298 299 300 299 299 299 299 299 299 300 300 299 298 298 299 298 298 297 297 296 296 296 296 296 296 296 295 295 295 294 293 292 291
264 266 269 274 278 281 283 285 289 293 296 294 292 290 288 288 289 290 292 293 295 295 296 297 297 298 299 299 299 300 302 305 305 303 302 301 302 303 304 303 304 306 307 305 304 303 302 301 301 302 302 301 301 301 302 303 304 303 302 301 301 302 302 302 302 301 300 300 299 298 298 297 296 296 295 295 295 295 294 294 293 293 292 292 291 290
269 272 274 277 279 281 283 286 288 290 291 290 288 286 285 285 285 286 288 289 290 291 292 294 295 296 296 296 297 299 302 305 306 305 303 302 303 303 302 302 305 307 307 305 305 305 304 303 302 303 303 304 304 305 306 306 306 305 304 304 303 303 302 303 304 304 303 302 300 299 299 298 297 297 296 295 295 294 293 292 292 291 290 289 288 288
272 275 277 278 279 281 283 284 285 286 286 286 284 283 283 284 284 285 285 286 286 287 288 289 290 292 293 294 295 297 301 306 307 305 302 302 302 301 301 302 304 306 306 305 305 305 304 303 303 304 305 305 306 307 309 309 309 308 307 308 307 306 305 306 308 307 306 304 303 302 301 300 299 299 298 297 295 293 292 291 291 290 289 288 286 285
275 276 277 278 279 281 282 284 284 284 284 284 283 283 283 283 284 284 284 284 284 284 285 286 287 288 289 290 293 296 300 302 302 301 299 298 298 299 299 300 302 303 303 303 302 303 303 303 303 305 306 306 307 308 310 311 311 310 310 310 310 309 309 311 312 311 309 308 306 305 304 303 301 301 299 298 296 295 293 292 291 290 289 288 286 284
277 277 278 279 280 281 283 285 285 285 285 284 283 282 281 281 281 282 282 283 283 283 284 285 285 286 287 288 290 293 295 296 296 295 294 293 294 295 296 297 298 299 300 300 299 299 300 300 301 303 304 306 307 309 310 311 311 312 312 312 311 310 312 315 315 313 312 311 310 308 306 305 303 302 301 299 298 296 294 293 292 291 290 289 287 285
276 277 278 280 281 283 285 286 287 287 287 287 285 283 281 280 278 278 278 278 279 280 282 283 284 284 285 286 288 290 290 291 290 290 290 290 291 292 293 294 294 295 296 296 295 296 297 299 299 301 302 304 306 308 309 310 311 312 314 314 314 315 317 317 316 315 315 315 313 311 309 307 306 304 302 300 299 298 296 295 295 294 293 291 290 288
272 275 278 280 282 283 285 286 287 289 289 290 291 291 289 287 284 281 279 278 278 278 278 279 280 281 282 282 284 286 287 287 287 287 288 289 289 290 290 290 290 291 292 292 293 294 296 297 298 299 300 303 305 306 307 308 310 312 314 314 316 317 318 317 317 318 319 317 315 313 312 310 307 305 303 302 301 300 299 298 298 297 296 295 293 292
269 274 278 280 282 284 285 286 287 288 289 292 295 296 294 292 290 289 287 286 284 282 281 280 280 279 278 278 280 283 285 286 286 287 287 288 288 287 287 286 286 287 289 291 292 293 295 297 298 298 299 302 304 304 304 306 309 311 313 314 317 318 317 317 319 321 321 319 317 316 314 311 308 305 304 303 302 301 301 301 300 300 299 298 296 294
272 276 279 281 283 284 285 285 285 284 284 284 283 283 285 288 289 290 290 290 289 287 285 283 281 280 280 280 281 282 284 285 286 287 287 286 285 284 282 281 282 284 287 289 291 293 294 296 296 297 299 301 302 302 302 305 308 311 312 315 318 319 318 319 321 323 322 320 320 319 316 311 308 306 305 304 303 303 303 303 302 301 301 300 298 297
276 278 280 282 284 284 285 284 284 282 279 274 270 271 276 282 286 288 289 290 290 290 289 286 284 283 283 282 283 284 285 286 287 288 289 288 286 284 282 282 282 284 286 288 290 293 294 295 295 297 299 300 300 299 301 304 307 310 312 315 317 318 316 318 321 323 322 322 322 322 318 314 310 308 306 305 304 304 304 303 302 300 299 299 298 297
275 278 282 286 288 288 286 286 285 285 284 281 279 279 281 284 286 288 289 290 292 292 292 290 288 286 285 284 284 285 286 287 290 292 293 293 292 292 292 292 292 291 290 290 290 291 293 293 294 297 299 298 298 297 299 303 306 308 311 314 315 315 314 316 321 324 324 324 323 323 321 317 313 309 307 306 306 306 304 303 301 300 299 298 298 297
274 279 286 291 292 292 290 290 291 291 291 291 291 292 292 292 292 293 294 295 295 295 295 293 290 288 288 287 286 285 285 287 290 293 294 296 298 300 301 300 298 297 295 293 293 292 292 292 294 296 297 296 296 297 298 302 304 307 309 312 313 313 312 316 320 324 325 324 324 324 323 319 313 310 309 310 309 307 304 302 301 301 301 301 301 300
276 283 289 292 291 291 291 294 296 298 299 299 300 301 302 301 301 301 301 302 301 299 298 295 292 289 288 288 287 286 286 288 291 294 296 297 300 301 302 301 299 298 297 296 295 294 293 294 294 294 293 293 294 295 298 301 303 305 308 310 311 311 312 315 319 322 323 323 324 324 323 319 315 313 313 313 310 307 304 304 303 303 303 304 305 304
278 284 287 288 288 289 291 294 297 299 301 302 304 305 305 305 305 304 304 304 303 301 299 296 293 290 288 286 285 286 288 291 294 297 297 299 301 301 301 300 299 299 298 297 296 295 294 293 292 291 290 291 292 294 297 300 302 304 306 308 310 311 311 313 316 320 321 321 322 322 321 318 316 315 315 313 310 307 306 306 305 305 305 306 306 306
277 281 283 284 285 288 291 294 297 298 299 301 303 304 304 303 302 302 301 302 302 300 298 295 293 290 288 286 286 288 290 293 295 296 296 298 299 300 300 300 300 300 299 297 296 295 294 293 292 291 291 292 294 296 299 301 303 304 305 307 309 311 311 312 314 317 320 321 321 320 318 315 313 312 312 310 309 307 307 306 305 304 304 305 306 306
276 278 279 281 283 287 291 294 297 298 299 301 302 302 301 301 300 300 300 300 301 300 298 296 293 290 287 287 289 290 291 292 292 293 295 297 298 300 301 302 302 303 302 301 301 300 299 299 297 295 295 296 298 300 302 304 305 306 306 307 309 311 312 312 314 318 321 321 320 318 316 313 310 309 309 308 307 306 305 304 304 303 304 305 306 306
274 276 277 278 282 286 290 294 298 300 301 302 302 302 302 302 302 302 301 302 302 302 300 298 296 293 291 291 291 291 291 291 292 293 294 296 299 301 303 306 308 309 309 309 308 308 307 306 304 301 299 298 301 304 304 306 308 308 307 307 309 312 312 313 315 318 319 317 313 311 308 306 304 304 306 307 307 305 304 304 303 303 304 305 306 306
Height
1494 1494 1494 1495 1495 1495 1495 1495 1495 1495 1496 1496 1495 1495 1495 1495 1495 1494 1494 1494 1494 1494 1494 1494 1494 1494 1494 1494 1494 1494 1493 1493 1493 1493 1493 1492 1492 1492 1491 1491 1491 1491 1490 1490 1490 1489 1489 1488 1487 1487 1486 1486 1486 1485 1484 1484 1483 1483 1482 1481 1481 1481 1480 1480 1479 1478 1478 1477 1476 1476 1475 1474 1473 1472 1472 1471 1470 1469 1468 1467 1466 1466 1464 1463 1462 1461
1492 1493 1493 1493 1494 1494 1494 1494 1494 1494 1494 1494 1494 1494 1494 1494 1494 1493 1493 1493 1493 1493 1493 1493 1493 1493 1493 1493 1493 1492 1492 1492 1492 1492 1492 1491 1491 1491 1491 1491 1490 1490 1490 1489 1489 1488 1488 1487 1487 1486 1486 1486 1485 1484 1484 1483 1483 1482 1481 1481 1481 1480 1479 1479 1478 1478 1477 1476 1476 1475 1475 1474 1473 1472 1471 1471 1470 1469 1468 1467 1466 1465 1464 1463 1462 1461
1492 1492 1492 1492 1493 1493 1493 1493 1493 1493 1493 1493 1493 1493 1493 1493 1492 1492 1492 1492 1492 1492 1492 1492 1492 1492 1492 1492 1492 1491 1491 1491 1491 1491 1491 1491 1491 1490 1490 1490 1489 1489 1489 1489 1488 1488 1487 1487 1486 1486 1485 1485 1484 1484 1483 1483 1482 1481 1481 1480 1480 1479 1479 1478 1477 1477 1476 1476 1475 1474 1474 1473 1472 1472 1471 1470 1469 1468 1467 1466 1466 1465 1464 1463 1461 1461
1491 1491 1491 1491 1491 1491 1491 1491 1491 1491 1491 1492 1492 1492 1492 1491 1491 1491 1491 1491 1491 1491 1491 1491 1491 1491 1491 1491 1491 1491 1491 1491 1490 1490 1490 1490 1490 1489 1489 1489 1488 1488 1488 1488 1487 1487 1487 1486 1486 1485 1485 1484 1484 1483 1483 1482 1481 1481 1480 1480 1479 1478 1478 1477 1476 1476 1475 1475 1474 1473 1473 1472 1471 1471 1470 1469 1469 1468 1467 1466 1465 1464 1463 1462 1461 1460
1490 1490 1490 1490 1490 1490 1490 1490 1490 1490 1490 1491 1491 1491 1491 1491 1490 1490 1490 1490 1490 1490 1490 1490 1490 1490 1490 1490 1490 1490 1490 1490 1489 1489 1489 1489 1488 1488 1488 1488 1487 1487 1487 1487 1486 1486 1486 1486 1485 1484 1484 1483 1483 1482 1482 1481 1481 1480 1480 1479 1478 1478 1477 1476 1476 1475 1474 1474 1473 1472 1472 1471 1471 1470 1469 1469 1468 1467 1466 1466 1465 1464 1463 1462 1461 1460
1489 1489 1489 1489 1489 1489 1489 1489 1489 1489 1489 1489 1490 1490 1490 1490 1489 1489 1489 1489 1489 1489 1489 1489 1489 1489 1489 1489 1489 1489 1489 1489 1489 1488 1488 1488 1487 1487 1487 1487 1486 1486 1486 1486 1486 1485 1485 1485 1484 1484 1483 1483 1482 1481 1481 1481 1480 1480 1479 1478 1478 1477 1476 1476 1475 1474 1474 1473 1472 1471 1471 1470 1470 1469 1468 1467 1467 1466 1466 1465 1464 1463 1462 1461 1460 1459
1487 1487 1487 1487 1487 1488 1488 1488 1488 1488 1488 1488 1488 1488 1488 1488 1488 1488 1488 1488 1488 1488 1488 1488 1488 1488 1488 1488 1488 1488 1488 1488 1488 1487 1487 1487 1486 1486 1486 1486 1485 1485 1485 1485 1484 1484 1484 1484 1483 1483 1482 1482 1481 1481 1480 1480 1479 1479 1478 1477 1477 1476 1476 1475 1474 1473 1473 1472 1471 1471 1470 1469 1468 1468 1467 1466 1466 1465 1464 1464 1463 1462 1461 1461 1460 1459
1486 1486 1486 1486 1487 1487 1487 1487 1486 1486 1486 1487 1487 1487 1487 1487 1487 1487 1487 1487 1487 1487 1487 1487 1487 1487 1487 1487 1487 1487 1487 1487 1486 1486 1486 1486 1485 1485 1485 1484 1484 1484 1484 1483 1483 1483 1483 1483 1482 1482 1481 1481 1480 1480 1479 1479 1478 1477 1477 1476 1476 1475 1475 1474 1473 1472 1472 1471 1471 1470 1469 1468 1467 1467 1466 1465 1465 1464 1463 1463 1462 1461 1461 1460 1459 1458
1485 1485 1485 1486 1486 1486 1486 1486 1486 1485 1485 1486 1486 1486 1486 1486 1486 1486 1486 1486 1486 1486 1486 1486 1486 1486 1486 1486 1486 1486 1486 1486 1485 1485 1485 1485 1484 1484 1484 1483 1483 1483 1483 1482 1482 1482 1481 1481 1481 1481 1480 1480 1479 1479 1478 1477 1477 1476 1476 1475 1475 1474 1473 1473 1472 1471 1471 1470 1470 1469 1468 1467 1467 1466 1465 1464 1464 1463 1462 1461 1461 1460 1459 1459 1458 1457
1483 1484 1484 1485 1485 1485 1485 1485 1484 1484 1484 1484 1485 1485 1485 1485 1485 1485 1485 1485 1485 1485 1485 1485 1485 1485 1485 1485 1485 1485 1484 1484 1484 1484 1484 1484 1483 1483 1483 1482 1482 1482 1481 1481 1481 1481 1481 1480 1480 1480 1479 1479 1478 1478 1477 1476 1476 1475 1475 1474 1474 1473 1472 1472 1471 1471 1470 1469 1469 1468 1467 1466 1466 1465 1464 1463 1463 1462 1461 1461 1460 1459 1458 1457 1456 1456
1482 1482 1483 1483 1483 1483 1483 1483 1483 1483 1483 1483 1483 1483 1483 1483 1484 1484 1484 1484 1484 1484 1484 1484 1484 1484 1484 1484 1484 1484 1483 1483 1483 1483 1483 1482 1482 1482 1482 1481 1481 1481 1481 1480 1480 1480 1479 1479 1479 1478 1478 1478 1477 1476 1476 1476 1475 1474 1474 1473 1472 1472 1471 1471 1470 1470 1469 1468 1467 1467 1466 1466 1465 1464 1463 1463 1462 1461 1460 1460 1459 1458 1457 1456 1456 1455
1481 1481 1481 1481 1481 1481 1482 1482 1482 1482 1482 1482 1482 1482 1482 1482 1483 1483 1483 1483 1483 1483 1483 1483 1483 1483 1483 1483 1483 1482 1482 1482 1482 1482 1481 1481 1481 1481 1481 1481 1480 1480 1480 1479 1479 1479 1478 1478 1478 1477 1477 1476 1476 1476 1475 1474 1474 1473 1472 1472 1471 1471 1470 1470 1469 1468 1468 1467 1466 1466 1465 1465 1464 1463 1462 1462 1461 1460 1460 1459 1458 1457 1456 1456 1455 1454
1479 1480 1480 1480 1480 1481 1481 1481 1481 1481 1481 1481 1481 1481 1481 1481 1481 1482 1482 1482 1482 1482 1482 1482 1482 1482 1482 1482 1482 1482 1481 1481 1481 1481 1481 1480 1480 1480 1480 1479 1479 1479 1479 1478 1478 1477 1477 1477 1476 1476 1476 1475 1475 1474 1474 1473 1473 1472 1471 1471 1470 1470 1469 1468 1468 1467 1466 1466 1465 1465 1464 1463 1463 1462 1461 1461 1460 1460 1459 1458 1457 1456 1456 1455 1454 1453
1478 1478 1479 1479 1479 1480 1480 1480 1480 1480 1480 1480 1480 1480 1480 1481 1481 1481 1481 1481 1481 1481 1481 1481 1481 1481 1481 1481 1481 1481 1481 1480 1480 1480 1480 1480 1479 1479 1478 1478 1478 1478 1478 1477 1477 1476 1476 1476 1476 1475 1475 1474 1473 1473 1473 1472 1471 1471 1471 1470 1469 1469 1468 1467 1467 1466 1466 1465 1464 1464 1463 1462 1462 1461 1461 1460 1459 1459 1458 1457 1456 1456 1455 1454 1453 1452
1477 1478 1478 1478 1478 1479 1479 1479 1479 1479 1479 1479 1479 1479 1479 1479 1480 1480 1480 1480 1479 1479 1480 1480 1480 1480 1480 1480 1480 1479 1479 1479 1479 1479 1479 1479 1478 1478 1477 1477 1477 1477 1476 1476 1476 1475 1475 1475 1474 1474 1473 1473 1472 1472 1471 1471 1471 1470 1469 1469 1468 1467 1467 1466 1466 1465 1464 1464 1463 1462 1462 1461 1461 1460 1459 1459 1458 1458 1457 1456 1456 1455 1454 1454 1453 1452
1477 1477 1477 1477 1477 1478 1478 1478 1478 1478 1478 1478 1478 1478 1478 1478 1478 1478 1479 1478 1478 1479 1479 1479 1479 1479 1479 1479 1478 1478 1478 1478 1478 1478 1478 1478 1477 1477 1476 1476 1476 1476 1475 1475 1474 1474 1474 1473 1473 1472 1472 1471 1471 1471 1470 1470 1469 1469 1468 1467 1467 1466 1466 1465 1464 1464 1463 1462 1462 1461 1461 1460 1460 1459 1458 1458 1457 1456 1456 1455 1455 1454 1453 1453 1452 1451
1476 1476 1476 1476 1476 1477 1477 1477 1477 1477 1477 1477 1478 1477 1478 1477 1477 1477 1477 1477 1478 1478 1478 1478 1478 1478 1478 1478 1477 1477 1477 1476 1476 1477 1477 1477 1476 1476 1476 1475 1475 1475 1474 1474 1473 1473 1472 1472 1472 1471 1471 1470 1470 1469 1469 1468 1468 1467 1467 1466 1466 1465 1464 1464 1463 1462 1462 1461 1461 1460 1459 1459 1458 1458 1457 1456 1456 1455 1455 1454 1454 1453 1452 1452 1451 1450
1475 1475 1475 1475 1476 1476 1476 1476 1476 1476 1477 1477 1477 1477 1477 1477 1476 1476 1476 1476 1476 1477 1476 1477 1477 1477 1477 1477 1476 1476 1476 1475 1475 1476 1476 1476 1475 1475 1474 1474 1474 1473 1473 1472 1472 1471 1471 1471 1471 1470 1470 1469 1468 1468 1467 1467 1466 1466 1466 1465 1464 1464 1463 1462 1462 1461 1461 1460 1459 1459 1458 1457 1457 1456 1456 1455 1455 1454 1454 1453 1452 1452 1451 1451 1450 1449
1474 1474 1475 1475 1475 1475 1476 1476 1476 1476 1476 1476 1476 1476 1476 1476 1476 1476 1475 1475 1476 1476 1476 1476 1476 1476 1476 1476 1475 1474 1474 1474 1474 1474 1475 1475 1474 1473 1473 1473 1472 1472 1472 1471 1471 1470 1470 1470 1469 1469 1468 1468 1467 1467 1466 1466 1465 1465 1464 1464 1463 1462 1462 1461 1461 1460 1459 1459 1458 1457 1457 1456 1456 1455 1454 1454 1453 1453 1452 1451 1451 1451 1450 1449 1449 1448
1474 1474 1474 1474 1475 1475 1475 1475 1475 1475 1475 1475 1475 1475 1475 1475 1475 1474 1474 1474 1474 1474 1474 1475 1474 1474 1474 1474 1473 1473 1473 1473 1472 1472 1473 1473 1473 1472 1471 1471 1471 1470 1470 1470 1470 1469 1469 1469 1468 1468 1467 1466 1466 1466 1465 1465 1464 1463 1463 1462 1462 1461 1461 1460 1459 1459 1458 1457 1457 1456 1456 1455 1454 1454 1453 1452 1452 1451 1451 1450 1450 1449 1448 1448 1447 1447
1473 1473 1474 1474 1474 1474 1474 1474 1474 1474 1474 1474 1474 1474 1473 1474 1473 1473 1473 1473 1473 1473 1473 1473 1473 1473 1473 1473 1472 1471 1472 1472 1471 1471 1471 1471 1471 1470 1470 1470 1469 1469 1469 1469 1469 1468 1468 1467 1467 1466 1466 1465 1465 1464 1464 1463 1463 1462 1461 1461 1460 1460 1459 1459 1458 1457 1457 1456 1456 1455 1454 1454 1453 1452 1451 1451 1450 1450 1449 1449 1448 1448 1447 1446 1446 1445
1473 1473 1473 1473 1473 1473 1473 1473 1473 1473 1473 1473 1473 1473 1472 1472 1472 1472 1472 1472 1472 1472 1472 1472 1472 1472 1472 1471 1471 1470 1471 1471 1470 1470 1470 1470 1469 1469 1468 1468 1467 1467 1467 1467 1467 1467 1466 1466 1465 1465 1464 1464 1463 1463 1462 1462 1461 1461 1460 1460 1459 1459 1458 1457 1457 1456 1456 1455 1454 1453 1453 1452 1451 1451 1450 1450 1449 1448 1448 1447 1446 1446 1446 1445 1444 1444
1473 1473 1473 1473 1473 1473 1473 1473 1472 1472 1472 1472 1472 1471 1471 1471 1471 1471 1471 1471 1471 1471 1471 1471 1471 1471 1471 1470 1470 1469 1469 1469 1469 1468 1468 1468 1468 1467 1467 1466 1466 1465 1465 1465 1465 1465 1464 1464 1464 1463 1463 1462 1462 1461 1461 1461 1460 1459 1459 1458 1458 1457 1457 1456 1456 1455 1454 1453 1453 1452 1451 1451 1450 1449 1449 1448 1447 1447 1446 1446 1445 1444 1444 1443 1443 1442
1473 1473 1473 1473 1472 1472 1472 1472 1472 1471 1471 1471 1471 1471 1470 1470 1470 1470 1470 1470 1470 1470 1470 1470 1470 1470 1470 1469 1469 1468 1468 1468 1468 1467 1467 1466 1466 1466 1466 1465 1464 1463 1462 1463 1463 1462 1462 1462 1462 1462 1461 1461 1460 1460 1460 1459 1459 1458 1457 1457 1456 1456 1455 1455 1454 1453 1453 1452 1451 1451 1450 1449 1448 1448 1447 1446 1446 1445 1444 1444 1443 1443 1442 1441 1441 1441
1472 1472 1472 1472 1472 1471 1471 1471 1471 1471 1470 1470 1470 1470 1470 1469 1469 1469 1469 1469 1469 1469 1469 1469 1469 1469 1469 1469 1468 1467 1467 1467 1467 1466 1466 1465 1464 1464 1464 1463 1462 1461 1460 1461 1461 1461 1460 1460 1461 1461 1460 1459 1459 1458 1458 1457 1457 1456 1456 1456 1455 1454 1454 1453 1452 1452 1451 1451 1450 1449 1448 1447 1447 1446 1446 1445 1444 1443 1443 1442 1441 1441 1440 1440 1439 1439
1471 1471 1471 1471 1471 1471 1470 1470 1470 1469 1469 1469 1469 1469 1469 1469 1468 1468 1468 1468 1468 1468 1468 1468 1468 1468 1468 1468 1467 1466 1466 1466 1466 1465 1464 1464 1463 1462 1461 1461 1460 1459 1457 1458 1459 1459 1458 1458 1458 1459 1458 1457 1457 1456 1456 1456 1455 1455 1454 1454 1453 1452 1452 1451 1451 1450 1450 1449 1448 1447 1446 1446 1445 1445 1444 1443 1442 1441 1441 1440 1440 1439 1438 1438 1437 1437
1471 1470 1470 1470 1470 1470 1469 1469 1469 1468 1468 1468 1468 1468 1468 1468 1468 1467 1467 1467 1467 1467 1467 1466 1466 1467 1467 1466 1466 1465 1465 1465 1464 1463 1463 1463 1461 1460 1460 1460 1459 1457 1456 1456 1456 1457 1457 1456 1456 1456 1456 1456 1455 1455 1454 1454 1453 1453 1452 1452 1451 1451 1450 1449 1449 1448 1447 1447 1446 1446 1445 1444 1443 1443 1442 1441 1441 1440 1439 1438 1438 1437 1436 1436 1436 1435
1469 1469 1469 1469 1469 1469 1469 1468 1468 1467 1467 1467 1467 1467 1467 1467 1467 1466 1466 1466 1466 1466 1466 1465 1466 1465 1465 1465 1464 1464 1464 1463 1462 1462 1462 1461 1460 1459 1458 1458 1457 1455 1454 1453 1454 1454 1455 1454 1454 1454 1454 1453 1453 1452 1452 1452 1451 1451 1451 1450 1449 1448 1448 1447 1446 1446 1445 1445 1444 1443 1443 1442 1441 1441 1440 1440 1439 1438 1437 1436 1436 1435 1434 1434 1433 1433
1468 1468 1468 1468 1468 1468 1468 1467 1467 1467 1466 1466 1466 1466 1466 1466 1466 1466 1466 1466 1466 1465 1464 1464 1464 1464 1463 1463 1463 1463 1462 1461 1461 1461 1461 1460 1458 1457 1457 1457 1456 1454 1453 1452 1451 1451 1452 1452 1452 1452 1451 1451 1451 1450 1450 1450 1449 1449 1448 1448 1447 1446 1446 1445 1444 1444 1443 1442 1442 1441 1441 1440 1439 1439 1438 1437 1437 1436 1435 1435 1434 1433 1432 1432 1431 1431
1467 1467 1467 1467 1467 1467 1467 1466 1466 1466 1466 1466 1466 1465 1465 1465 1465 1465 1465 1465 1464 1464 1463 1463 1463 1463 1462 1461 1461 1461 1461 1460 1460 1460 1459 1458 1456 1455 1456 1456 1454 1452 1452 1451 1449 1447 1447 1449 1450 1450 1449 1448 1448 1448 1448 1447 1447 1447 1446 1446 1445 1444 1444 1443 1442 1442 1441 1440 1440 1439 1438 1438 1437 1436 1436 1435 1435 1434 1433 1433 1432 1431 1430 1430 1429 1429
1466 1466 1466 1466 1466 1466 1466 1466 1466 1465 1465 1465 1465 1464 1464 1464 1464 1464 1463 1463 1463 1463 1462 1462 1462 1461 1461 1461 1460 1460 1459 1459 1458 1458 1457 1456 1454 1454 1454 1454 1452 1451 1451 1451 1449 1446 1444 1444 1446 1447 1447 1446 1446 1446 1446 1446 1446 1445 1444 1444 1443 1442 1442 1441 1440 1440 1439 1438 1437 1437 1436 1435 1435 1434 1433 1433 1432 1432 1431 1431 1430 1429 1428 1427 1427 1426
1466 1466 1465 1465 1465 1465 1465 1465 1465 1465 1464 1464 1464 1463 1463 1463 1463 1463 1462 1462 1462 1462 1461 1461 1461 1461 1460 1460 1459 1458 1458 1458 1457 1456 1455 1454 1452 1452 1453 1452 1451 1450 1450 1450 1449 1447 1444 1442 1442 1443 1444 1444 1444 1444 1445 1444 1444 1443 1442 1441 1441 1440 1440 1439 1438 1437 1436 1436 1436 1435 1434 1433 1432 1432 1431 1431 1430 1429 1429 1428 1428 1427 1426 1425 1424 1424
1465 1465 1465 1465 1464 1464 1464 1464 1464 1464 1463 1463 1463 1462 1462 1462 1462 1462 1461 1461 1461 1461 1461 1460 1460 1459 1459 1459 1458 1457 1457 1457 1457 1456 1454 1453 1451 1451 1451 1451 1450 1449 1449 1449 1448 1446 1445 1442 1440 1440 1440 1441 1441 1441 1442 1442 1441 1441 1440 1439 1438 1438 1437 1437 1436 1435 1434 1434 1433 1432 1432 1431 1430 1430 1429 1428 1427 1427 1426 1426 1426 1425 1424 1423 1422 1421
1464 1464 1464 1464 1464 1463 1463 1463 1463 1463 1463 1462 1462 1462 1461 1461 1461 1461 1461 1461 1460 1460 1460 1459 1459 1458 1458 1457 1457 1456 1456 1456 1456 1455 1454 1452 1451 1450 1450 1450 1449 1448 1448 1447 1446 1445 1444 1442 1440 1439 1438 1437 1438 1439 1439 1439 1439 1438 1438 1437 1436 1436 1435 1435 1434 1433 1432 1431 1431 1430 1429 1429 1428 1427 1426 1426 1425 1425 1424 1424 1423 1423 1422 1421 1420 1419
1463 1463 1463 1463 1463 1462 1462 1462 1462 1462 1462 1462 1461 1461 1461 1461 1460 1460 1460 1460 1459 1459 1459 1458 1458 1457 1457 1456 1455 1455 1455 1455 1455 1454 1453 1451 1450 1449 1449 1448 1448 1447 1447 1446 1444 1444 1442 1441 1439 1438 1437 1435 1435 1436 1436 1437 1436 1436 1436 1435 1435 1434 1433 1432 1432 1431 1430 1429 1428 1428 1427 1426 1426 1425 1424 1423 1423 1422 1422 1421 1421 1421 1420 1419 1418 1417
1462 1462 1462 1462 1462 1462 1461 1461 1461 1461 1461 1461 1461 1461 1460 1460 1460 1459 1459 1459 1458 1458 1458 1457 1457 1456 1456 1455 1454 1454 1453 1454 1454 1453 1452 1451 1450 1449 1447 1447 1446 1446 1446 1444 1443 1442 1441 1440 1438 1437 1436 1435 1433 1433 1434 1434 1434 1434 1433 1433 1433 1432 1431 1431 1430 1429 1428 1427 1426 1425 1425 1424 1423 1422 1421 1421 1421 1420 1419 1419 1419 1418 1418 1417 1416 1416
1461 1461 1461 1461 1461 1461 1461 1461 1461 1461 1461 1460 1460 1460 1459 1459 1459 1458 1458 1458 1457 1457 1457 1456 1456 1456 1455 1454 1454 1453 1452 1452 1452 1452 1451 1450 1449 1448 1447 1446 1445 1445 1445 1443 1442 1441 1440 1439 1437 1436 1435 1434 1433 1431 1431 1431 1431 1431 1431 1430 1430 1430 1429 1429 1428 1427 1426 1425 1424 1423 1422 1422 1421 1420 1419 1419 1418 1417 1417 1416 1416 1416 1416 1415 1414 1414
1461 1461 1461 1461 1460 1460 1460 1460 1459 1459 1459 1459 1459 1459 1458 1458 1458 1457 1457 1457 1456 1456 1456 1455 1455 1454 1454 1453 1453 1452 1452 1451 1451 1451 1450 1449 1448 1447 1446 1445 1444 1444 1444 1443 1441 1440 1439 1438 1436 1435 1433 1432 1432 1431 1430 1429 1429 1428 1428 1428 1428 1428 1427 1426 1426 1426 1424 1423 1422 1421 1421 1420 1419 1418 1417 1416 1416 1415 1414 1414 1414 1413 1413 1412 1412 1411
1460 1460 1460 1460 1460 1459 1459 1458 1458 1458 1458 1458 1458 1457 1457 1457 1457 1456 1456 1456 1455 1455 1454 1454 1454 1453 1453 1452 1452 1451 1451 1450 1450 1449 1449 1448 1447 1446 1445 1444 1443 1443 1443 1442 1441 1440 1439 1437 1436 1434 1433 1431 1430 1429 1429 1428 1427 1426 1426 1425 1425 1425 1425 1425 1424 1423 1422 1421 1420 1419 1418 1417 1417 1416 1415 1414 1414 1413 1412 1411 1411 1411 1411 1410 1410 1409
1459 1459 1459 1459 1459 1458 1458 1457 1457 1457 1457 1456 1456 1456 1456 1456 1456 1455 1455 1454 1454 1453 1453 1453 1452 1452 1451 1451 1451 1450 1450 1449 1449 1448 1447 1447 1446 1445 1445 1443 1442 1442 1441 1441 1440 1439 1438 1436 1435 1434 1432 1431 1429 1428 1427 1426 1426 1425 1424 1423 1422 1422 1422 1423 1422 1421 1420 1420 1419 1417 1416 1415 1415 1414 1413 1412 1411 1411 1410 1409 1409 1409 1408 1408 1407 1407
1457 1457 1458 1458 1457 1457 1457 1456 1456 1456 1456 1455 1455 1454 1454 1454 1454 1453 1453 1453 1452 1452 1452 1451 1451 1450 1450 1450 1449 1449 1449 1448 1447 1447 1446 1446 1445 1444 1443 1442 1441 1441 1440 1439 1438 1437 1436 1435 1434 1432 1431 1430 1429 1427 1425 1425 1424 1424 1423 1421 1420 1419 1420 1420 1420 1419 1418 1418 1417 1416 1415 1414 1413 1412 1411 1411 1410 1409 1409 1408 1407 1407 1406 1406 1406 1405
1456 1456 1456 1456 1456 1456 1456 1455 1455 1455 1454 1454 1454 1453 1453 1452 1452 1451 1451 1451 1451 1450 1450 1450 1449 1448 1448 1448 1448 1448 1447 1446 1446 1445 1445 1444 1443 1443 1442 1441 1441 1440 1439 1438 1436 1436 1435 1434 1432 1431 1430 1429 1428 1426 1424 1423 1423 1422 1422 1420 1419 1417 1417 1416 1417 1417 1417 1416 1415 1414 1414 1412 1411 1410 1409 1409 1408 1408 1407 1407 1406 1406 1405 1405 1404 1403
1454 1455 1455 1455 1455 1455 1455 1454 1454 1453 1453 1453 1453 1452 1451 1451 1450 1450 1449 1449 1448 1448 1448 1448 1447 1446 1446 1446 1446 1446 1446 1445 1445 1444 1443 1443 1442 1441 1441 1440 1439 1439 1438 1436 1435 1434 1433 1432 1431 1430 1428 1428 1426 1425 1422 1421 1421 1421 1420 1419 1418 1416 1415 1413 1414 1415 1415 1414 1413 1412 1412 1411 1409 1408 1407 1407 1406 1406 1406 1406 1405 1404 1404 1403 1402 1402
1453 1453 1454 1454 1454 1454 1454 1453 1452 1452 1452 1452 1451 1451 1450 1450 1449 1448 1448 1447 1447 1446 1446 1446 1445 1445 1444 1444 1444 1444 1444 1443 1443 1442 1442 1441 1441 1440 1440 1439 1438 1437 1436 1435 1433 1432 1431 1430 1429 1428 1427 1426 1425 1423 1421 1421 1420 1419 1418 1418 1417 1416 1414 1413 1412 1412 1412 1411 1411 1411 1410 1409 1408 1406 1406 1405 1405 1404 1404 1404 1403 1403 1402 1402 1401 1401
1451 1452 1453 1453 1453 1452 1452 1451 1451 1451 1451 1450 1450 1449 1449 1448 1448 1447 1446 1446 1445 1445 1445 1444 1444 1443 1442 1441 1441 1442 1441 1441 1441 1441 1440 1440 1439 1439 1438 1437 1436 1436 1435 1433 1432 1431 1429 1428 1427 1426 1426 1425 1423 1422 1421 1420 1419 1418 1417 1417 1416 1415 1413 1412 1412 1411 1411 1410 1409 1409 1408 1407 1406 1405 1404 1403 1402 1402 1402 1402 1401 1401 1400 1400 1400 1399
1450 1451 1451 1451 1451 1451 1450 1450 1450 1449 1449 1449 1448 1448 1448 1447 1447 1446 1445 1445 1444 1443 1443 1443 1442 1441 1440 1440 1440 1440 1439 1439 1438 1438 1438 1437 1437 1436 1436 1436 1435 1433 1432 1431 1430 1429 1428 1426 1425 1424 1424 1423 1421 1420 1420 1419 1418 1416 1416 1415 1415 1414 1412 1411 1411 1411 1410 1409 1408 1407 1407 1406 1405 1403 1402 1401 1401 1400 1400 1400 1399 1398 1398 1397 1397 1396
1449 1449 1450 1450 1450 1450 1449 1449 1448 1448 1448 1447 1447 1447 1446 1446 1445 1445 1444 1443 1443 1442 1441 1441 1441 1440 1439 1438 1438 1438 1437 1436 1436 1436 1436 1436 1435 1435 1434 1433 1432 1431 1431 1429 1428 1427 1426 1425 1424 1423 1422 1421 1420 1418 1418 1418 1417 1416 1415 1414 1413 1412 1411 1410 1410 1410 1409 1408 1407 1406 1406 1405 1403 1402 1401 1400 1399 1398 1397 1396 1396 1396 1396 1395 1394 1394
1447 1448 1448 1449 1448 1448 1448 1448 1447 1447 1446 1446 1446 1446 1445 1445 1444 1443 1442 1442 1441 1441 1440 1439 1439 1438 1437 1437 1436 1436 1435 1435 1434 1434 1434 1433 1433 1433 1432 1431 1430 1430 1429 1428 1426 1426 1424 1424 1423 1422 1421 1420 1419 1417 1416 1416 1416 1415 1414 1413 1412 1411 1410 1409 1408 1408 1408 1407 1406 1405 1405 1404 1402 1401 1400 1398 1397 1395 1394 1394 1394 1393 1393 1393 1392 1391
1446 1447 1447 1447 1447 1447 1446 1446 1446 1446 1445 1445 1444 1444 1444 1443 1443 1442 1441 1441 1440 1440 1439 1438 1437 1437 1436 1435 1435 1434 1434 1433 1432 1432 1432 1431 1431 1431 1430 1429 1428 1427 1426 1426 1425 1424 1423 1422 1421 1420 1420 1419 1418 1416 1415 1415 1414 1413 1412 1411 1411 1410 1408 1407 1407 1406 1406 1405 1405 1404 1403 1402 1401 1401 1399 1397 1395 1393 1392 1391 1391 1391 1391 1390 1390 1389
1446 1446 1446 1446 1446 1446 1445 1445 1445 1445 1444 1444 1443 1443 1442 1442 1441 1441 1440 1439 1439 1438 1437 1437 1436 1435 1434 1433 1433 1433 1432 1431 1431 1430 1430 1430 1429 1428 1427 1427 1426 1425 1424 1423 1422 1421 1420 1419 1418 1418 1418 1417 1416 1415 1414 1413 1412 1412 1411 1410 1409 1408 1407 1406 1405 1405 1405 1404 1403 1402 1401 1401 1400 1399 1398 1397 1394 1392 1391 1389 1388 1388 1387 1388 1387 1386
1445 1445 1445 1445 1445 1444 1444 1444 1444 1443 1443 1442 1442 1441 1441 1440 1440 1439 1438 1438 1437 1436 1436 1435 1434 1433 1432 1431 1431 1431 1431 1430 1429 1428 1428 1428 1427 1427 1426 1425 1424 1423 1421 1420 1419 1418 1417 1416 1415 1415 1415 1416 1416 1415 1413 1412 1411 1410 1409 1408 1408 1407 1406 1405 1404 1403 1403 1402 1401 1401 1400 1399 1398 1397 1397 1396 1394 1391 1389 1387 1386 1385 1385 1385 1384 1383